Terminal Aerodrome Forecast
Issued by NWS Upton, NY

Home | Current Version | Previous Version | Text Only | Print | Product List | Glossary On
Versions: 1 2 3 4 5 6 7 8 9 10 11 12 13 14 15 16 17 18 19 20 21 22 23 24 25 26 27 28 29 30 31 32 33 34
000
FTUS41 KOKX 090230 AAA
TAFEWR
TAF AMD
KEWR 090230Z 0903/1006 28014G20KT P6SM FEW050 FEW250
     FM091400 29018G23KT P6SM SCT040
     FM091700 29021G29KT P6SM BKN040
     FM100100 30012G23KT P6SM BKN120=

USA.gov is the U.S. government's official web portal to all federal, state and local government web resources and services.